{"data":{"norad_id":48779,"epoch":"2026-09-19T21:43:32.282400Z","epoch_age_seconds":69511,"freshness":"FRESH","line1":"1 48779U 21045N   26262.90523475 -.00000041  00000+0 -14422-3 0  9992","line2":"2 48779  87.8989 240.3091 0002102  81.6648 278.4720 13.15547335256867","mean_motion":13.15547335,"eccentricity":0.0002102,"inclination_deg":87.8989,"raan_deg":240.3091,"arg_perigee_deg":81.6648,"mean_anomaly_deg":278.472,"bstar":-0.00014422,"rev_number":25686,"period_min":109.46014344668,"perigee_km":1200.1821369172,"apogee_km":1203.3687321046,"semimajor_km":7579.9124345109,"source":"CELESTRAK","updated_at":"2026-09-20T09:00:44.617448Z"}}